Regional Weather Roundup
Issued by NWS

Home | Current Version | Previous Version | Text Only | Print | Product List | Glossary Off
Versions: 1 2 3 4 5 6 7 8 9 10 11 12 13 14 15 16 17 18 19 20 21 22 23 24 25 26 27 28 29 30 31 32 33 34 35 36 37 38 39 40 41 42 43 44 45 46 47 48 49 50

000
ASUS43 KFSD 251310
RWRSD

WEATHER ROUNDUP FOR SOUTH DAKOTA
NATIONAL WEATHER SERVICE SIOUX FALLS SD
800 AM CDT WED MAY 25 2016

NOTE: "FAIR" INDICATES FEW OR NO CLOUDS BELOW 12,000 FEET WITH NO
SIGNIFICANT WEATHER AND/OR OBSTRUCTIONS TO VISIBILITY.


SDZ001>005-009-010-012>017-251400-
NORTHWEST AND NORTH CENTRAL SOUTH DAKOTA

CITY           SKY/WX    TMP DP  RH WIND       PRES   REMARKS
BUFFALO          N/A     51  48  89 SE6       29.77S
FAITH            N/A     54  50  86 W6        29.83S
MOBRIDGE       MOSUNNY   61  53  75 E6        29.74R
$$

SDZ012>016-024>037-041>051-057-063-072>074-251400-
SOUTHWEST AND SOUTH CENTRAL SOUTH DAKOTA

CITY           SKY/WX    TMP DP  RH WIND       PRES   REMARKS
RAPID CTY ARPT SUNNY     53  48  83 CALM      29.86S
PIERRE         MOSUNNY   57  54  89 SW9       29.77R
CUSTER         FOG       45  43  93 W9        29.91S VSB 1/4
PHILIP         PTSUNNY   53  50  89 W7        29.82R
PINE RIDGE     SUNNY     51  47  86 W7        29.88R
WINNER         CLOUDY    60  56  86 W3        29.81R
$$

SDZ004>011-016>023-039-040-251400-
NORTHEAST SOUTH DAKOTA

CITY           SKY/WX    TMP DP  RH WIND       PRES   REMARKS
ABERDEEN       RAIN      60  56  86 NE12      29.77F
WATERTOWN      LGT RAIN  63  58  83 SE14G21   29.74F
BROOKINGS      CLOUDY    61  58  90 SE14      29.77R
SISSETON         N/A     60  56  86 CALM      29.78F
$$

SDZ017-020-022-023-036>040-048>070-251400-
SOUTHEAST SOUTH DAKOTA

CITY           SKY/WX    TMP DP  RH WIND       PRES   REMARKS
SIOUX FALLS    CLOUDY    63  58  83 S10       29.82S
HURON          CLOUDY    60  58  92 MISG      29.74R
CHAMBERLAIN    MOSUNNY   61  60  97 W7        29.79S
MITCHELL       CLOUDY    63  61  93 SW8       29.76S
YANKTON        CLOUDY    61  57  88 S6        29.80F
$$

ABBREVIATIONS USED IN REMARKS
   TC - TEMPERATURE IN CELSIUS
  WCI - WIND CHILL INDEX
   HX - HEAT INDEX
  VSB - VISIBILITY





USA.gov is the U.S. government's official web portal to all federal, state and local government web resources and services.